Tracking 18784 objects as of 18-August-2017
HD Live streaming from Space Station
objects crossing your sky now

SCOUT B-1 R/B

Track SCOUT B-1 R/B now!
10-day predictions


NORAD ID: 5438
Int'l Code: 1971-071B
Perigee: 632.1 km
Apogee: 784.7 km
Inclination: 50.1 °
Period: 98.8 minutes
Semi major axis: 7079 km
RCS: 0.747 m2 (medium)
Launch date: August 16, 1971
Source: United States (US)
Launch site: WALLOPS ISLAND (WLPIS)

Note: This is a ROCKET BODY
Your satellite tracking list
Your tracking list is empty





NASA's NSSDC Master Catalog

Two Line Element Set (TLE):
1  5438U 71071B   17229.90604382 -.00000072 +00000-0 +27348-4 0  9997
2  5438 050.1466 153.8638 0107729 072.5392 288.7280 14.57502721408047
Source of the keplerian elements: AFSPC